Boise, ID

5:40 AM MDT on March 27, 2017 (GMT -0600)
Boise Air Term

Weather History for KBOI - July, 2013

Change the Weather History Date:

Friday, July 5, 2013

  Actual Average Record
Temperature  
Mean Temperature 76 °F 74 °F  
Max Temperature 92 °F 89 °F 106 °F (1896)
Min Temperature 60 °F 58 °F 35 °F (1986)
Degree Days  
Heating Degree Days 0 0  
Month to date heating degree days 0 4  
Since 1 June heating degree days 35 68  
Since 1 July heating degree days 0 4  
Cooling Degree Days 11 9  
Month to date cooling degree days 107 42  
Year to date cooling degree days 345 225  
Since 1 June cooling degree days 298 181  
Growing Degree Days 26 (Base 50)    
Moisture  
Dew Point 41 °F    
Average Humidity 35    
Maximum Humidity 56    
Minimum Humidity 14    
Precipitation  
Precipitation 0.00 in 0.02 in 0.40 in (1938)
Month to date precipitation T 0.07  
Year to date precipitation 4.33 7.00  
Snow  
Snow 0.00 in 0.00 in 0.00 in (2006)
Month to date snowfall 0.0 0.0  
Since 1 July snowfall 0.0 0.0  
Snow Depth 0.00 in    
Sea Level Pressure  
Sea Level Pressure 29.72 in    
Wind  
Wind Speed 7 mph (WNW)    
Max Wind Speed 17 mph    
Max Gust Speed 21 mph    
Visibility 10 miles    
Events      
T = Trace of Precipitation, MM = Missing Value Source: NWS Daily Summary

Daily Weather History Graph

Daily Weather History Graph

Search for Another Location

Airport or City:

Trip Planner

Search our weather history database for the weather conditions in past years. The results will help you decide how hot, cold, wet, or windy it might be!

Date:

Astronomy

Jul. 05, 2013 Rise Set
Actual Time 6:10 AM MDT 9:28 PM MDT
Civil Twilight 5:34 AM MDT 10:04 PM MDT
Nautical Twilight 4:48 AM MDT 10:49 PM MDT
Astronomical Twilight 3:51 AM MDT 11:46 PM MDT
Moon 4:14 AM MDT (7/5) 7:25 PM MDT (7/5)
Length of Visible Light 16h 29m
Length of Day
15h 18m
Waning Crescent, 6% of the Moon is Illuminated
Jul 5
Waning Crescent
Jul 8
New
Jul 15
First Quarter
Jul 22
Full
Jul 29
Last Quarter

Hourly Weather History & Observations

Time (MDT) Temp. Dew Point Humidity Pressure Visibility Wind Dir Wind Speed Gust Speed Precip Events Conditions
12:53 AM 71.1 °F 50.0 °F 47% 29.74 in 10.0 mi SSE 5.8 mph - N/A   Clear
1:53 AM 69.1 °F 50.0 °F 51% 29.74 in 10.0 mi Calm Calm - N/A   Clear
2:53 AM 66.0 °F 50.0 °F 56% 29.74 in 10.0 mi SW 3.5 mph - N/A   Clear
3:53 AM 66.0 °F 50.0 °F 56% 29.74 in 10.0 mi Calm Calm - N/A   Clear
4:53 AM 64.0 °F 46.0 °F 52% 29.74 in 10.0 mi Calm Calm - N/A   Clear
5:53 AM 63.0 °F 43.0 °F 48% 29.75 in 10.0 mi Calm Calm - N/A   Clear
6:53 AM 60.1 °F 42.1 °F 51% 29.76 in 10.0 mi South 3.5 mph - N/A   Clear
7:53 AM 64.9 °F 42.1 °F 43% 29.78 in 10.0 mi Calm Calm - N/A   Clear
8:53 AM 68.0 °F 44.1 °F 42% 29.78 in 10.0 mi Calm Calm - N/A   Clear
9:53 AM 72.0 °F 44.1 °F 37% 29.78 in 10.0 mi West 3.5 mph - N/A   Clear
10:53 AM 75.9 °F 44.1 °F 32% 29.75 in 10.0 mi West 6.9 mph - N/A   Clear
11:53 AM 80.1 °F 45.0 °F 29% 29.75 in 10.0 mi West 9.2 mph - N/A   Partly Cloudy
12:53 PM 80.1 °F 43.0 °F 27% 29.75 in 8.0 mi WNW 6.9 mph - N/A   Partly Cloudy
1:53 PM 84.0 °F 41.0 °F 22% 29.73 in 10.0 mi North 4.6 mph - N/A   Clear
2:53 PM 89.1 °F 39.0 °F 17% 29.70 in 10.0 mi North 12.7 mph 18.4 mph N/A   Clear
3:53 PM 89.1 °F 37.0 °F 16% 29.68 in 10.0 mi WNW 9.2 mph - N/A   Clear
4:53 PM 91.0 °F 37.9 °F 15% 29.66 in 10.0 mi NNW 13.8 mph 18.4 mph N/A   Clear
5:53 PM 91.0 °F 37.9 °F 15% 29.65 in 10.0 mi NNW 11.5 mph 19.6 mph N/A   Clear
6:53 PM 91.0 °F 35.1 °F 14% 29.64 in 10.0 mi NNW 13.8 mph - N/A   Clear
7:53 PM 89.1 °F 34.0 °F 14% 29.63 in 10.0 mi NW 11.5 mph 19.6 mph N/A   Clear
8:53 PM 87.1 °F 36.0 °F 16% 29.64 in 10.0 mi WNW 10.4 mph - N/A   Clear
9:53 PM 82.0 °F 36.0 °F 19% 29.66 in 10.0 mi WNW 10.4 mph - N/A   Clear
10:53 PM 78.1 °F 36.0 °F 22% 29.70 in 10.0 mi NW 9.2 mph - N/A   Clear
11:53 PM 75.0 °F 33.1 °F 22% 29.71 in 10.0 mi NW 8.1 mph - N/A   Clear